Flag for Germany Weather past 2 weeks in Neubrandenburg, Mecklenburg-Western Pomerania, Germany

Now
43 °F

Scattered clouds.


Feels Like: 41 °F
Forecast: 37 / 65 °F
Wind: 3 mph from West

Location: Greifswald


UV Index: 3 (Moderate)

Visibility: 19 mi


Pressure: 29.72 "Hg

Humidity: 87%

Dew point: 40 °F

Location of NeubrandenburgLocation

Historic Weather in Neubrandenburg

°F

Neubrandenburg temperature yesterday

Maximum temperature yesterday: 57 °F (at 4:00 PM)
Minimum temperature yesterday: 38 °F (at 1:00 AM)
Average temperature yesterday: 48 °F

Past Weeks' High & Low Weather Summary

 TemperatureHumidityPressure
High65 °F (Apr 7, 4:00 PM)100% (Apr 12, 3:00 AM)30.45 "Hg (Apr 12, 3:00 AM)
Low33 °F (Apr 16, 6:00 AM)34% (Apr 17, 1:00 PM)29.57 "Hg (Apr 14, 9:00 AM)
Average48 °F78%29.99 "Hg
* Reported Apr 3 8:00 AM — Apr 18 8:00 AM, Neubrandenburg, Weather by CustomWeather, © 2014

Note: Actual official high and low records may vary slightly from our data, if they occured in-between our weather recording intervals... More about our weather records

Advertising

Historic Weather Conditions — Data for Previous 24 hours

 ConditionsComfort  
Time TempWeatherWind HumidityBarometerVisibility
8:00 AM
Apr 18
44 °FPartly sunny.5 mph92%29.71 "Hg14 mi
7:00 AM43 °FOvercast.2 mph94%29.70 "Hg13 mi
6:00 AM43 °FOvercast.2 mph93%29.70 "Hg16 mi
5:00 AM43 °FLight rain. Overcast.3 mph93%29.70 "Hg12 mi
4:00 AM44 °FLight rain. Overcast.3 mph91%29.70 "Hg5 mi
3:00 AM45 °FLight rain. Overcast.3 mph92%29.71 "Hg3 mi
2:00 AM45 °FLight rain. Overcast.5 mph90%29.73 "Hg4 mi
6:00 PM
Apr 17
57 °FScattered clouds.7 mph34%29.96 "Hg22 mi
5:00 PM57 °FPartly sunny.7 mph34%30.01 "Hg19 mi
4:00 PM57 °FPartly sunny.7 mph34%30.03 "Hg28 mi
3:00 PM57 °FOvercast.7 mph34%30.07 "Hg22 mi
2:00 PM56 °FOvercast.8 mph34%30.12 "Hg19 mi
1:00 PM55 °FOvercast.7 mph34%30.16 "Hg17 mi
12:00 PM54 °FOvercast.8 mph37%30.20 "Hg19 mi
11:00 AM52 °FOvercast.7 mph42%30.23 "Hg19 mi
10:00 AM51 °FPartly sunny.6 mph49%30.25 "Hg22 mi
9:00 AM47 °FPartly sunny.3 mph57%30.27 "Hg22 mi
Weather by CustomWeather, © 2014

See weather overview